Overview Statistics Trail Chart Weather Telemetry Raw packets
 

This is the latest recevied weather packets stored in our database for station/object DC1MPP-9. If no packets are shown the sender has not sent any weather packets the latest 10 day(s).

<< 111 112 113 114 115 116 117 >>
Time Temp. Humidity Pressure Rain* Wind** Luminosity Snow
1787743652 28.89° C 64% 960 hPa - - - -
1787743411 28.89° C 57% 960 hPa - - - -
1787743170 28.89° C 62% 961 hPa - - - -
1787742446 28.89° C 64% 961 hPa - - - -
1787742205 28.89° C 61% 961 hPa - - - -
1787741964 28.33° C 62% 961 hPa - - - -
1787741723 28.89° C 61% 961 hPa - - - -
1787741482 28.89° C 67% 961 hPa - - - -
1787741241 28.89° C 66% 961 hPa - - - -
1787741000 28.89° C 59% 961 hPa - - - -
1787740518 28.33° C 66% 961 hPa - - - -
1787740277 28.33° C 76% 961 hPa - - - -
1787740036 27.78° C 74% 961 hPa - - - -
1787739795 27.78° C 69% 961 hPa - - - -
1787739554 28.33° C 80% 961 hPa - - - -
1787739313 27.78° C 73% 961 hPa - - - -
1787739071 27.78° C 82% 961 hPa - - - -
1787738589 27.22° C 75% 961 hPa - - - -
1787737866 27.78° C 70% 961 hPa - - - -
1787737625 27.78° C 78% 961 hPa - - - -
1787737384 27.22° C 86% 961 hPa - - - -
1787736902 27.22° C 82% 961 hPa - - - -
1787736661 27.22° C 85% 961 hPa - - - -
1787736420 27.22° C 89% 961 hPa - - - -
1787736179 26.11° C 87% 961 hPa - - - -

* Rain since midnight (hover to see other rain measurements)
** Current wind speed in m/s (hover to see current wind gust speed)